SOL702 AGGH-NFFN

Flight info

Callsign SOL702
Flight time N/A
Altitude 35000
Route HN B452 NN
Aircraft A320/M-SDE3FGHIRWY/LB1

Departure

Time 2026-04-18 14:31
Airport Honiara International Airport (AGGH)

Arrival

Time N/A
Airport Nadi International Airport (NFFN)
Time Latitude Longitude Altitude Speed Heading
2026-04-18 14:31 -9.42349 160.15315 3433 ft 238 kts 119°
2026-04-18 14:31 -9.43189 160.16840 3715 ft 256 kts 119°
2026-04-18 14:32 -9.44082 160.18477 4090 ft 272 kts 119°
2026-04-18 14:32 -9.45005 160.20181 4703 ft 277 kts 119°
2026-04-18 14:32 -9.45931 160.21895 5355 ft 279 kts 118°
2026-04-18 14:32 -9.46867 160.23630 5978 ft 282 kts 118°
2026-04-18 14:33 -9.47809 160.25378 6565 ft 284 kts 118°
2026-04-18 14:33 -9.48750 160.27125 7135 ft 287 kts 118°
2026-04-18 14:33 -9.49714 160.28919 7701 ft 290 kts 118°
2026-04-18 14:33 -9.50684 160.30721 8257 ft 292 kts 118°
2026-04-18 14:34 -9.51648 160.32513 8775 ft 295 kts 118°
2026-04-18 14:34 -9.52638 160.34355 9275 ft 297 kts 118°
2026-04-18 14:34 -9.53620 160.36183 9763 ft 300 kts 118°
2026-04-18 14:34 -9.54626 160.38057 10228 ft 302 kts 118°
2026-04-18 14:35 -9.55645 160.39955 10452 ft 314 kts 118°
2026-04-18 14:35 -9.56705 160.41931 10668 ft 326 kts 118°
2026-04-18 14:35 -9.57806 160.43982 10906 ft 337 kts 118°
2026-04-18 14:35 -9.58938 160.46092 11296 ft 341 kts 118°
2026-04-18 14:36 -9.60080 160.48219 11789 ft 342 kts 118°
2026-04-18 14:36 -9.61210 160.50323 12254 ft 343 kts 118°
2026-04-18 14:36 -9.62360 160.52467 12702 ft 345 kts 118°
2026-04-18 14:36 -9.63512 160.54616 13146 ft 347 kts 118°
2026-04-18 14:37 -9.64661 160.56757 13582 ft 349 kts 118°
2026-04-18 14:37 -9.65830 160.58937 14016 ft 351 kts 118°
2026-04-18 14:37 -9.66987 160.61095 14435 ft 352 kts 118°
2026-04-18 14:37 -9.68158 160.63278 14838 ft 354 kts 118°
2026-04-18 14:38 -9.69340 160.65488 15243 ft 355 kts 117°
2026-04-18 14:38 -9.70522 160.67696 15649 ft 357 kts 117°
2026-04-18 14:38 -9.71703 160.69900 16041 ft 359 kts 117°
2026-04-18 14:38 -9.72886 160.72111 16421 ft 360 kts 117°
2026-04-18 14:39 -9.74082 160.74347 16774 ft 361 kts 118°
2026-04-18 14:39 -9.75289 160.76601 17121 ft 364 kts 118°
2026-04-18 14:39 -9.76504 160.78870 17481 ft 365 kts 118°
2026-04-18 14:39 -9.77716 160.81134 17840 ft 367 kts 118°
2026-04-18 14:40 -9.78941 160.83424 18193 ft 368 kts 118°
2026-04-18 14:40 -9.80155 160.85693 18537 ft 370 kts 118°
2026-04-18 14:40 -9.81382 160.87987 18865 ft 371 kts 117°
2026-04-18 14:40 -9.82612 160.90289 19178 ft 372 kts 117°
2026-04-18 14:41 -9.83851 160.92607 19496 ft 374 kts 117°
2026-04-18 14:41 -9.85079 160.94913 19825 ft 375 kts 116°
2026-04-18 14:41 -9.86236 160.97307 20129 ft 376 kts 114°
2026-04-18 14:41 -9.87331 160.99710 20409 ft 378 kts 114°
2026-04-18 14:42 -9.88434 161.02145 20688 ft 380 kts 114°
2026-04-18 14:42 -9.89529 161.04565 20965 ft 381 kts 114°
2026-04-18 14:42 -9.90644 161.07028 21238 ft 383 kts 114°
2026-04-18 14:42 -9.91756 161.09482 21505 ft 384 kts 113°
2026-04-18 14:43 -9.92872 161.11943 21766 ft 385 kts 113°
2026-04-18 14:43 -9.93994 161.14416 22023 ft 386 kts 113°
2026-04-18 14:43 -9.95105 161.16869 22268 ft 388 kts 113°
2026-04-18 14:43 -9.96230 161.19351 22507 ft 389 kts 113°
2026-04-18 14:44 -9.97367 161.21860 22743 ft 390 kts 113°
2026-04-18 14:44 -9.98505 161.24371 22974 ft 391 kts 113°
2026-04-18 14:44 -9.99639 161.26875 23205 ft 393 kts 113°
2026-04-18 14:44 -10.00783 161.29399 23433 ft 394 kts 113°
2026-04-18 14:45 -10.01931 161.31937 23661 ft 395 kts 113°
2026-04-18 14:45 -10.03073 161.34457 23885 ft 397 kts 113°
2026-04-18 14:45 -10.04237 161.37030 24116 ft 399 kts 113°
2026-04-18 14:45 -10.05385 161.39568 24353 ft 399 kts 114°
2026-04-18 14:46 -10.06550 161.42143 24554 ft 401 kts 114°
2026-04-18 14:46 -10.07707 161.44699 24764 ft 403 kts 114°
2026-04-18 14:46 -10.08873 161.47278 24974 ft 404 kts 114°
2026-04-18 14:46 -10.10045 161.49869 25186 ft 405 kts 114°
2026-04-18 14:47 -10.11234 161.52499 25400 ft 407 kts 114°
2026-04-18 14:47 -10.12406 161.55092 25611 ft 408 kts 114°
2026-04-18 14:47 -10.13602 161.57741 25826 ft 410 kts 114°
2026-04-18 14:47 -10.14776 161.60350 26036 ft 411 kts 114°
2026-04-18 14:48 -10.15971 161.63008 26250 ft 412 kts 114°
2026-04-18 14:48 -10.17152 161.65636 26461 ft 413 kts 114°
2026-04-18 14:48 -10.18344 161.68289 26673 ft 415 kts 114°
2026-04-18 14:48 -10.19543 161.70956 26880 ft 416 kts 114°
2026-04-18 14:49 -10.20741 161.73624 27084 ft 417 kts 114°
2026-04-18 14:49 -10.21957 161.76331 27289 ft 419 kts 114°
2026-04-18 14:49 -10.23153 161.78995 27491 ft 420 kts 114°
2026-04-18 14:49 -10.24372 161.81709 27703 ft 421 kts 114°
2026-04-18 14:50 -10.25583 161.84405 27911 ft 422 kts 114°
2026-04-18 14:50 -10.26811 161.87144 28130 ft 423 kts 114°
2026-04-18 14:50 -10.28029 161.89859 28348 ft 424 kts 114°
2026-04-18 14:50 -10.29258 161.92598 28562 ft 426 kts 114°
2026-04-18 14:51 -10.30483 161.95331 28775 ft 427 kts 114°
2026-04-18 14:51 -10.31703 161.98051 28984 ft 428 kts 114°
2026-04-18 14:51 -10.32944 162.00821 29189 ft 429 kts 114°
2026-04-18 14:51 -10.34172 162.03561 29388 ft 431 kts 114°
2026-04-18 14:52 -10.35427 162.06364 29597 ft 432 kts 114°
2026-04-18 14:52 -10.36667 162.09134 29803 ft 434 kts 114°
2026-04-18 14:52 -10.37907 162.11903 30005 ft 435 kts 114°
2026-04-18 14:52 -10.39163 162.14710 30206 ft 436 kts 114°
2026-04-18 14:53 -10.40414 162.17505 30402 ft 437 kts 114°
2026-04-18 14:53 -10.41675 162.20325 30603 ft 438 kts 114°
2026-04-18 14:53 -10.42943 162.23160 30802 ft 440 kts 114°
2026-04-18 14:53 -10.44191 162.25952 30995 ft 441 kts 114°
2026-04-18 14:54 -10.45469 162.28812 31203 ft 442 kts 114°
2026-04-18 14:54 -10.46724 162.31622 31458 ft 441 kts 114°
2026-04-18 14:54 -10.47992 162.34459 31731 ft 440 kts 114°
2026-04-18 14:54 -10.49257 162.37293 31999 ft 439 kts 114°
2026-04-18 14:55 -10.50506 162.40088 32273 ft 438 kts 115°
2026-04-18 14:55 -10.51760 162.42892 32543 ft 437 kts 115°
2026-04-18 14:55 -10.53050 162.45779 32822 ft 436 kts 115°
2026-04-18 14:55 -10.54304 162.48585 33094 ft 435 kts 115°
2026-04-18 14:56 -10.55561 162.51402 33347 ft 435 kts 115°
2026-04-18 14:56 -10.56804 162.54189 33574 ft 435 kts 115°
2026-04-18 14:56 -10.58057 162.57001 33777 ft 436 kts 115°
2026-04-18 14:56 -10.59314 162.59821 33964 ft 437 kts 115°
2026-04-18 14:57 -10.60566 162.62628 34145 ft 438 kts 115°
2026-04-18 14:57 -10.61825 162.65457 34322 ft 439 kts 114°
2026-04-18 14:57 -10.63074 162.68263 34478 ft 440 kts 114°
2026-04-18 14:57 -10.64335 162.71095 34633 ft 441 kts 114°
2026-04-18 14:58 -10.65601 162.73943 34786 ft 441 kts 114°
2026-04-18 14:58 -10.66864 162.76782 34926 ft 442 kts 114°
2026-04-18 14:58 -10.68138 162.79648 34958 ft 443 kts 114°
2026-04-18 14:59 -10.70668 162.85342 34984 ft 442 kts 114°
2026-04-18 14:59 -10.73193 162.91026 34951 ft 442 kts 114°
2026-04-18 15:00 -10.75718 162.96710 34928 ft 442 kts 114°
2026-04-18 15:00 -10.78241 163.02394 34923 ft 442 kts 114°
2026-04-18 15:01 -10.80769 163.08096 34922 ft 442 kts 114°
2026-04-18 15:01 -10.83293 163.13791 34926 ft 442 kts 115°
2026-04-18 15:02 -10.85830 163.19514 34928 ft 442 kts 115°
2026-04-18 15:02 -10.88349 163.25200 34928 ft 442 kts 115°
2026-04-18 15:03 -10.90866 163.30888 34927 ft 442 kts 115°
2026-04-18 15:03 -10.93383 163.36585 34926 ft 442 kts 115°
2026-04-18 15:04 -10.95910 163.42302 34926 ft 442 kts 115°
2026-04-18 15:04 -10.98440 163.48029 34926 ft 442 kts 115°
2026-04-18 15:05 -11.00945 163.53703 34926 ft 443 kts 115°
2026-04-18 15:05 -11.03476 163.59444 34925 ft 443 kts 115°
2026-04-18 15:06 -11.05997 163.65163 34923 ft 444 kts 115°
2026-04-18 15:06 -11.08528 163.70906 34920 ft 445 kts 115°
2026-04-18 15:07 -11.11053 163.76642 34919 ft 445 kts 115°
2026-04-18 15:07 -11.13591 163.82411 34918 ft 445 kts 115°
2026-04-18 15:08 -11.16115 163.88152 34918 ft 446 kts 115°
2026-04-18 15:08 -11.18626 163.93866 34918 ft 446 kts 115°
2026-04-18 15:09 -11.21159 163.99634 34917 ft 446 kts 115°
2026-04-18 15:09 -11.23685 164.05388 34917 ft 446 kts 115°
2026-04-18 15:10 -11.26216 164.11157 34916 ft 446 kts 115°
2026-04-18 15:10 -11.28757 164.16954 34916 ft 446 kts 115°
2026-04-18 15:11 -11.31281 164.22716 34917 ft 446 kts 115°
2026-04-18 15:11 -11.33809 164.28487 34918 ft 446 kts 115°
2026-04-18 15:12 -11.36340 164.34270 34918 ft 447 kts 115°